This is the latest recevied weather packets stored in our database for station/object W4JCW. If no packets are shown the sender has not sent any weather packets the latest 10 day(s).
| Time | Temp. | Humidity | Pressure | Rain* | Wind** | Luminosity | Snow |
|---|---|---|---|---|---|---|---|
| 1777671295 | 19.44° C | 57% | 1010.7 hPa | 0 mm | - | 156 W/m² | - |
| 1777670990 | 18.89° C | 57% | 1010.7 hPa | 0 mm | - | 185 W/m² | - |
| 1777670687 | 19.44° C | 56% | 1010.7 hPa | 0 mm | - | 291 W/m² | - |
| 1777670384 | 19.44° C | 55% | 1010.7 hPa | 0 mm | - | 181 W/m² | - |
| 1777670082 | 20° C | 58% | 1010.9 hPa | 0 mm | - | 219 W/m² | - |
| 1777669779 | 19.44° C | 56% | 1010.9 hPa | 0 mm | - | 180 W/m² | - |
| 1777669476 | 20° C | 55% | 1010.9 hPa | 0 mm | - | 264 W/m² | - |
| 1777669172 | 20° C | 55% | 1010.7 hPa | 0 mm | - | 568 W/m² | - |
| 1777668869 | 19.44° C | 56% | 1011 hPa | 0 mm | - | 490 W/m² | - |
| 1777668566 | 19.44° C | 59% | 1010.9 hPa | 0 mm | - | 246 W/m² | - |
| 1777668262 | 19.44° C | 57% | 1010.9 hPa | 0 mm | - | 253 W/m² | - |
| 1777667958 | 18.89° C | 57% | 1011.1 hPa | 0 mm | - | 337 W/m² | - |
| 1777667655 | 18.89° C | 58% | 1011.1 hPa | 0 mm | - | 434 W/m² | - |
| 1777667353 | 18.89° C | 56% | 1011.1 hPa | 0 mm | - | 216 W/m² | - |
| 1777667050 | 19.44° C | 56% | 1011.1 hPa | 0 mm | - | 238 W/m² | - |
| 1777666746 | 18.89° C | 56% | 1011.1 hPa | 0 mm | - | 304 W/m² | - |
| 1777666443 | 19.44° C | 58% | 1011.1 hPa | 0 mm | - | 263 W/m² | - |
| 1777666140 | 18.89° C | 56% | 1011.2 hPa | 0 mm | - | 315 W/m² | - |
| 1777665837 | 18.89° C | 57% | 1011.3 hPa | 0 mm | - | 221 W/m² | - |
| 1777665535 | 18.33° C | 55% | 1011.3 hPa | 0 mm | - | 230 W/m² | - |
| 1777665230 | 18.33° C | 57% | 1011.6 hPa | 0 mm | - | 233 W/m² | - |
| 1777664927 | 18.33° C | 55% | 1011.5 hPa | 0 mm | - | 213 W/m² | - |
| 1777664623 | 18.89° C | 55% | 1011.5 hPa | 0 mm | - | 232 W/m² | - |
| 1777664319 | 18.89° C | 54% | 1011.8 hPa | 0 mm | - | 507 W/m² | - |
| 1777664018 | 18.89° C | 54% | 1011.7 hPa | 0 mm | - | 504 W/m² | - |
* Rain latest hour (hover to see other rain measurements)
** Current wind speed in m/s (hover to see current wind gust speed)